Terminal Aerodrome Forecast
Issued by NWS

Home | Current Version | Previous Version | Text Only | Print | Product List | Glossary On
Versions: 1 2 3 4 5 6 7 8 9 10 11 12 13 14 15 16 17 18 19 20 21 22 23 24 25 26 27 28 29 30
000
FTUS46 KEKA 240545
TAFACV
TAF
KACV 240545Z 2406/2506 20006KT 6SM -RA FEW020 BKN035
     FM240900 17010G16KT 4SM -RA OVC025
     FM241400 19014G22KT 2SM RA BR SCT005 OVC015
     FM242000 27010KT 4SM -SHRA BR FEW005 OVC015
     FM250000 27003KT 6SM -SHRA OVC010=

USA.gov is the U.S. government's official web portal to all federal, state and local government web resources and services.